CZ-2D DEB

Satellite information

Favourite Embed

Satellite Type and Status

DEBRISIN ORBIT

Key statistics

Satellite CZ-2D DEB at a glance.

Uptime

5081

Days in orbit

Revolutions

≈ 14.5

Per day

Orbit

SSO

Sun Synchronous Orbit

Inclination

98.5

Latest

Satellite identification and parameters

Extended collection of information and parameters for CZ-2D DEB.

Object identification

Identified? True

Debris? True

Object name: CZ-2D DEB

International designator: 2011-068E

Object number (NORAD): 38177

Object ID (CCSDS): 38177

Country: PEOPLES REPUBLIC OF CHINA (PRC)

Current information (Y/N): Y

RCS size: SMALL

Orbital parameters

Period: 99.588 minutes

Inclination: 98.5273 deg

SMA: 7117.025 km

Apoapsis: 824.47 km

Periapsis: 653.31 km

RAAN: 312.0155 deg

Eccentricy: 0.01202469

Argument of periapsis: 237.7169 deg

Mean anomaly: 151.8125 deg

Mean motion: 14.45955904 rev/day

Mean motion (dot): 0.00002865 rev/day2

B* drag term: 0.00074893548 1/REarth

Two-line elements (TLE)

Creation date: Oct. 18, 2025, 2:17 a.m.

Reference frame: TEME

Reference center: EARTH

Epoch: Oct. 18, 2025, 12:06 a.m. UTC

TLE line 0: 0 CZ-2D DEB

TLE line 1: 1 38177U 11068E 25291.00451031 .00002865 00000-0 74894-3 0 9991

TLE line 2: 2 38177 98.5273 312.0155 0120247 237.7169 151.8125 14.45955904725621

Live tracking on map

Real-time ground track for satellite CZ-2D DEB.

In-orbit conjunctions

A list of the most updated potential collisions computed for object CZ-2D DEB.

Target Orbit TCA Probability of collision Miss distance Type
CZ-6A DEB SSO 2025-05-13 10:37:38 0.0001185908 237.0 (m) DEBRIS
SKIPPER SSO 2025-01-27 07:27:35 0.0001773561 351.0 (m) PAYLOAD
NOAA 16 DEB SSO 2024-11-11 13:33:01 0.0001244471 87.0 (m) DEBRIS

Associated space launch

CZ-2D DEB was lifted into orbit during the mission ‘Long March 2D | Shiyan Weixing 4 & Chuang Xin 1C’, on board a Long March 2D space rocket.

The launch took place on Nov. 20, 2011, 12:15 a.m. from Launch Area 4 (SLS-2 / 603).

For more information about the launch, click the button.

Launch to space Long March 2D | Shiyan Weixing 4 & Chuang Xin 1C
Long March 2D | Shiyan Weixing 4 & Chuang Xin 1C

Agency: N/A

Status: Launch Successful

Launch date: Nov. 20, 2011, 12:15 a.m. UTC

Rocket: Long March 2D

Launch pad: Launch Area 4 (SLS-2 / 603)

Location: Jiuquan Satellite Launch Center, People's Republic of China

...

Latest news about this satellite

There are no fresh news available about this satellite. Check back as we update our databases every day.


Newsletter sign-up

Weekly statistics, charts and insights to help you stay on top of the space industry.